Change the Weather History Date:

Wednesday, August 28, 2013

  Actual Average Record
Temperature  
Mean Temperature 74 °F 72 °F  
Max Temperature 89 °F 87 °F 105 °F (1944)
Min Temperature 58 °F 57 °F 44 °F (1955)
Degree Days  
Heating Degree Days 0 0  
Month to date heating degree days 0 0  
Since 1 June heating degree days 5 36  
Since 1 July heating degree days 0 4  
Cooling Degree Days 9 7  
Month to date cooling degree days 221 204  
Year to date cooling degree days 789 598  
Since 1 June cooling degree days 688 545  
Growing Degree Days 24 (Base 50)    
Moisture  
Dew Point 58 °F    
Average Humidity 61    
Maximum Humidity 90    
Minimum Humidity 32    
Precipitation  
Precipitation 0.00 in 0.00 in 0.14 in (1949)
Month to date precipitation 0.00 0.01  
Year to date precipitation 2.12 9.91  
Since 1 July precipitation 0.00 0.01  
Sea Level Pressure  
Sea Level Pressure 29.89 in    
Wind  
Wind Speed 9 mph (West)    
Max Wind Speed 20 mph    
Max Gust Speed 24 mph    
Visibility 10 miles    
Events      
T = Trace of Precipitation, MM = Missing Value Source: NWS Daily Summary

Daily Weather History Graph

Daily Weather History Graph

Search for Another Location

Airport or City:

Trip Planner

Search our weather history database for the weather conditions in past years. The results will help you decide how hot, cold, wet, or windy it might be!

Date:

Astronomy

Aug. 28, 2013 Rise Set
Actual Time 6:34 AM PDT 7:41 PM PDT
Civil Twilight 6:07 AM PDT 8:08 PM PDT
Nautical Twilight 5:35 AM PDT 8:40 PM PDT
Astronomical Twilight 5:01 AM PDT 9:14 PM PDT
Moon No Moon Rise 2:20 PM PDT (8/28)
Length of Visible Light 14h 01m
Length of Day
13h 07m
Last Quarter, 46% of the Moon is Illuminated
Aug 28
Last Quarter
Sep 5
New
Sep 12
First Quarter
Sep 19
Full
Sep 26
Last Quarter

Hourly Weather History & Observations

Time (PDT) Temp. Heat Index Dew Point Humidity Pressure Visibility Wind Dir Wind Speed Gust Speed Precip Events Conditions
2:53 AM 62.1 °F - 57.0 °F 84% 29.85 in 10.0 mi WSW 6.9 mph - N/A   Clear
3:53 AM 60.1 °F - 55.9 °F 86% 29.86 in 10.0 mi West 4.6 mph - N/A   Clear
4:19 AM 60.8 °F - 55.4 °F 82% 29.87 in 10.0 mi West 4.6 mph - N/A   Partly Cloudy
4:53 AM 61.0 °F - 57.0 °F 87% 29.86 in 10.0 mi SW 5.8 mph - N/A   Clear
5:53 AM 60.1 °F - 55.9 °F 86% 29.87 in 10.0 mi West 4.6 mph - N/A   Partly Cloudy
6:53 AM 61.0 °F - 57.0 °F 87% 29.88 in 10.0 mi WSW 4.6 mph - N/A   Scattered Clouds
7:53 AM 64.0 °F - 57.9 °F 80% 29.89 in 10.0 mi West 5.8 mph - N/A   Scattered Clouds
8:02 AM 64.4 °F - 57.2 °F 77% 29.90 in 10.0 mi West 5.8 mph - N/A   Partly Cloudy
8:22 AM 64.4 °F - 57.2 °F 77% 29.91 in 10.0 mi WNW 4.6 mph - N/A   Mostly Cloudy
8:53 AM 66.9 °F - 57.9 °F 73% 29.90 in 10.0 mi WNW 5.8 mph - N/A   Partly Cloudy
9:53 AM 70.0 °F - 57.9 °F 65% 29.91 in 10.0 mi WSW 5.8 mph - N/A   Clear
10:53 AM 75.0 °F - 57.9 °F 55% 29.91 in 10.0 mi West 6.9 mph - N/A   Clear
11:53 AM 80.1 °F 80.4 °F 57.0 °F 45% 29.91 in 10.0 mi WNW 9.2 mph - N/A   Clear
12:53 PM 84.0 °F 83.3 °F 57.0 °F 40% 29.89 in 10.0 mi West 9.2 mph - N/A   Clear
1:53 PM 86.0 °F 84.7 °F 55.9 °F 36% 29.88 in 10.0 mi West 11.5 mph - N/A   Clear
2:53 PM 86.0 °F 84.2 °F 54.0 °F 33% 29.87 in 10.0 mi West 10.4 mph - N/A   Clear
3:53 PM 87.1 °F 85.3 °F 55.0 °F 33% 29.86 in 10.0 mi West 13.8 mph - N/A   Clear
4:53 PM 82.9 °F 82.8 °F 59.0 °F 44% 29.86 in 10.0 mi West 18.4 mph - N/A   Clear
5:53 PM 82.0 °F 82.4 °F 60.1 °F 47% 29.86 in 10.0 mi West 12.7 mph - N/A   Clear
6:53 PM 78.1 °F - 61.0 °F 56% 29.86 in 10.0 mi West 13.8 mph - N/A   Clear
7:53 PM 73.0 °F - 61.0 °F 66% 29.88 in 10.0 mi NW 9.2 mph - N/A   Clear
8:53 PM 70.0 °F - 60.1 °F 71% 29.90 in 10.0 mi West 6.9 mph - N/A   Clear
9:53 PM 68.0 °F - 60.1 °F 76% 29.92 in 10.0 mi WNW 9.2 mph - N/A   Clear
10:53 PM 66.0 °F - 60.1 °F 81% 29.93 in 10.0 mi West 8.1 mph - N/A   Clear
11:53 PM 64.0 °F - 60.1 °F 87% 29.94 in 10.0 mi West 4.6 mph - N/A   Clear